COSMOS 249 DEB *, 6176

Orbit data source: Space-Track

COSMOS 249 DEB *, 6176 is space debris in LEO originally from a launch on Sun, 20 Oct 1968 UTC launched from the Tyuratam Missile And Space Complex (TTMTR). Debris objects in space refer to the collection of defunct objects orbiting the Earth. Examples of debris include non-operational satellites, rocket bodies, and fragments generated from explosions, collisions, or faulty payload assembly.

Loading next visibility...
Identifier
6176, 1968-091CG
Orbit
LEO
Country
Flag of CISCIS
Related business
Manufacturer
Unknown
Mission
Spacecraft
Bus & Motor
Unknown
Mass
Unknown
Launch date (UTC)
1968-10-20 (58 years ago)
Launch vehicle
Unknown
Launch site
Tyuratam Missile And Space Complex (TTMTR)
Object type
Payload
Rocket body
Debris
Shape & HBR
Unknown shape, 0.1 m
Radar Cross Section
Medium (>0.1 m² and <1 m²)

Expand to show TLE details & history
Last TLE update: 18 hours ago

TLE from 18 hours ago
0 COSMOS 249 DEB *
1 06176U 68091CG  26235.57025217  .00000294  00000-0  62874-3 0  9996
2 06176  65.7264  78.5320 0463856  11.0562 350.0247 13.08543062168002
Epoch: 2026-08-23T13:41Z
TLE epoch observation values (Epoch: 2026-08-23T13:41:09.787Z)
Latitude
0.00001°
Longitude
-98.62319°
Altitude
883.691 km
Speed
7.578 km/s
True Right ascension
05h 14m 07s
True Declination
0° 00' 00"
Sunlit
Object was in daylight at epoch
Visualization orbit readout
Latitude
Unknown
Longitude
Unknown
Altitude
Unknown
Speed
Unknown
Apparent Right ascension
Unknown
Apparent Declination
Unknown
Sunlit
N/A
Visualization observer readout
Local Sidereal Time
23:03:50
Azimuth
Unknown
Elevation
Unknown
Doppler factor
Unknown
Orbital elements
Apogee altitude
1,580.159 km
Perigee altitude
874.587 km
Semi-major axis
7,605.51 km
Eccentricity
0.04639
Inclination
65.7264°
RAAN
78.532°
Arg. of periapsis
11.0562°
True anomaly
349.04838°
Mean anomaly
350.0247°
Eccentric anomaly
349.5423°
Mean motion
3.27228 °/min
Orbital period
110.01 mins
BSTAR
0.00062874
Loading maneuver chart data...
Computing Atmospheric mass density...
Loading historical data...
Loading historical data...
Loading historical data...
Loading historical data...
Loading historical data...
Loading historical data...
Loading historical data...

Documentation

Showing up to 5 results
|